Weather History for Weslaco, TX

Change the Weather History Date:

Tuesday, November 12, 2013

  Actual Average (KMFE) Record (KMFE)
Temperature  
Mean Temperature 67 °F 70 °F  
Max Temperature 75 °F 81 °F 91 °F (1970)
Min Temperature 59 °F 60 °F 38 °F (1887)
Degree Days  
Heating Degree Days 0 1  
Month to date heating degree days 12  
Since 1 July heating degree days 17  
Cooling Degree Days 2 7  
Month to date cooling degree days 96  
Year to date cooling degree days 4278  
Growing Degree Days 17 (Base 50)    
Moisture  
Dew Point 57 °F    
Average Humidity 67    
Maximum Humidity 87    
Minimum Humidity 46    
Precipitation  
Precipitation 0.00 in 0.02 in 0.83 in (1967)
Month to date precipitation 0.43  
Year to date precipitation 20.55  
Sea Level Pressure  
Sea Level Pressure 30.30 in    
Wind  
Wind Speed 9 mph (NNE)    
Max Wind Speed 21 mph    
Max Gust Speed 29 mph    
Visibility 10 miles    
Events      
T = Trace of Precipitation, MM = Missing Value Source: NWS Daily Summary

Daily Weather History Graph

Daily Weather History Graph

Search for Another Location

Airport:

Trip Planner

Search our weather history database for the weather conditions in past years. The results will help you decide how hot, cold, wet, or windy it might be!

Date:

Astronomy

Nov. 12, 2013 Rise Set
Actual Time 6:48 AM CST 5:43 PM CST
Civil Twilight 6:24 AM CST 6:07 PM CST
Nautical Twilight 5:56 AM CST 6:35 PM CST
Astronomical Twilight 5:28 AM CST 7:02 PM CST
Moon 2:34 PM CST (11/12) 2:07 AM CST (11/12)
Length of Visible Light 11h 43m
Length of Day
10h 54m
Waxing Gibbous, 76% of the Moon is Illuminated
Nov 12
Waxing Gibbous
Nov 17
Full
Nov 25
Last Quarter
Dec 2
New
Dec 9
First Quarter

Hourly Weather History & Observations

Time (CST) Temp. Dew Point Humidity Pressure Visibility Wind Dir Wind Speed Gust Speed Precip Events Conditions
12:15 AM 69.6 °F 64.4 °F 83% 30.17 in 10.0 mi ENE 3.5 mph - N/A   Overcast
12:35 AM 69.3 °F 64.6 °F 85% 30.17 in 10.0 mi Calm Calm - N/A   Overcast
12:55 AM 69.1 °F 64.4 °F 85% 30.17 in 10.0 mi Calm Calm - N/A   Overcast
1:15 AM 68.9 °F 64.4 °F 86% 30.17 in 10.0 mi Calm Calm - N/A   Overcast
1:35 AM 68.7 °F 64.8 °F 87% 30.17 in 10.0 mi NNE 3.5 mph - N/A   Overcast
1:55 AM 68.7 °F 64.6 °F 87% 30.16 in 10.0 mi NE 6.9 mph - N/A   Overcast
2:15 AM 68.5 °F 64.4 °F 87% 30.16 in 10.0 mi NNE 5.8 mph - N/A   Overcast
2:35 AM 68.4 °F 64.0 °F 86% 30.16 in 10.0 mi NNE 4.6 mph - N/A   Overcast
2:55 AM 68.4 °F 63.9 °F 85% 30.16 in 10.0 mi NNE 5.8 mph - N/A   Overcast
3:15 AM 68.5 °F 63.7 °F 84% 30.16 in 10.0 mi NNE 5.8 mph - N/A   Overcast
3:35 AM 68.7 °F 63.5 °F 83% 30.17 in 10.0 mi Calm Calm - N/A   Overcast
3:55 AM 68.5 °F 63.5 °F 84% 30.17 in 10.0 mi North 4.6 mph - N/A   Overcast
4:15 AM 68.4 °F 63.0 °F 83% 30.17 in 10.0 mi NNE 5.8 mph - N/A   Overcast
4:35 AM 68.0 °F 62.6 °F 83% 30.17 in 10.0 mi NNE 8.1 mph - N/A   Overcast
4:55 AM 68.2 °F 61.9 °F 80% 30.18 in 10.0 mi NNE 6.9 mph - N/A   Overcast
5:15 AM 67.5 °F 61.7 °F 82% 30.18 in 10.0 mi NNE 5.8 mph - N/A   Overcast
5:35 AM 67.3 °F 61.3 °F 81% 30.19 in 10.0 mi NNE 8.1 mph - N/A   Overcast
5:55 AM 67.3 °F 61.7 °F 82% 30.20 in 10.0 mi NNE 8.1 mph - N/A   Overcast
6:15 AM 67.6 °F 61.5 °F 81% 30.20 in 10.0 mi NNE 10.4 mph 16.1 mph N/A   Overcast
6:35 AM 67.6 °F 61.7 °F 81% 30.21 in 10.0 mi NNE 8.1 mph - N/A   Overcast
6:55 AM 67.5 °F 61.7 °F 82% 30.22 in 10.0 mi NNE 8.1 mph - N/A   Overcast
7:15 AM 67.1 °F 61.7 °F 83% 30.23 in 10.0 mi NNE 10.4 mph - N/A   Overcast
7:35 AM 67.3 °F 61.9 °F 83% 30.24 in 10.0 mi NNE 10.4 mph - N/A   Overcast
7:55 AM 68.0 °F 62.2 °F 82% 30.25 in 10.0 mi NNE 9.2 mph - N/A   Overcast
8:15 AM 68.9 °F 61.9 °F 78% 30.26 in 10.0 mi NNE 9.2 mph 16.1 mph N/A   Overcast
8:35 AM 69.3 °F 61.0 °F 75% 30.27 in 10.0 mi North 9.2 mph 16.1 mph N/A   Overcast
8:55 AM 69.4 °F 60.8 °F 74% 30.28 in 10.0 mi North 9.2 mph 16.1 mph N/A   Overcast
9:15 AM 69.8 °F 59.9 °F 71% 30.29 in 10.0 mi North 8.1 mph - N/A   Overcast
9:35 AM 70.7 °F 59.0 °F 66% 30.29 in 10.0 mi NNE 13.8 mph - N/A   Overcast
9:55 AM 71.8 °F 58.1 °F 62% 30.30 in 10.0 mi North 12.7 mph 18.4 mph N/A   Overcast
10:15 AM 73.6 °F 58.1 °F 58% 30.30 in 10.0 mi NNE 15.0 mph 23.0 mph N/A   Overcast
10:35 AM 73.4 °F 57.7 °F 58% 30.29 in 10.0 mi NNE 16.1 mph 21.9 mph N/A   Overcast
10:55 AM 72.9 °F 57.6 °F 59% 30.29 in 10.0 mi NNE 15.0 mph 18.4 mph N/A   Overcast
11:15 AM 73.6 °F 58.1 °F 58% 30.29 in 7.0 mi NNE 13.8 mph 21.9 mph N/A   Mostly Cloudy
11:35 AM 75.2 °F 56.7 °F 52% 30.29 in 10.0 mi NNE 18.4 mph 24.2 mph N/A   Scattered Clouds
11:55 AM 75.2 °F 55.8 °F 51% 30.28 in 7.0 mi NNE 18.4 mph 24.2 mph N/A   Scattered Clouds
12:15 PM 73.8 °F 54.9 °F 52% 30.29 in 10.0 mi NE 20.7 mph 26.5 mph N/A   Clear
12:35 PM 75.4 °F 55.4 °F 50% 30.29 in 10.0 mi NNE 16.1 mph 24.2 mph N/A   Scattered Clouds
12:55 PM 75.0 °F 53.8 °F 47% 30.29 in 10.0 mi NNE 20.7 mph 26.5 mph N/A   Mostly Cloudy
1:15 PM 75.2 °F 53.4 °F 47% 30.28 in 10.0 mi NNE 20.7 mph 28.8 mph N/A   Scattered Clouds
1:35 PM 74.7 °F 53.1 °F 47% 30.28 in 7.0 mi NNE 18.4 mph 27.6 mph N/A   Clear
1:55 PM 74.5 °F 53.6 °F 48% 30.28 in 10.0 mi NNE 19.6 mph 26.5 mph N/A   Clear
2:15 PM 73.6 °F 51.4 °F 46% 30.29 in 7.0 mi NNE 20.7 mph 27.6 mph N/A   Clear
2:35 PM 73.4 °F 52.2 °F 47% 30.29 in 10.0 mi NNE 16.1 mph 25.3 mph N/A   Clear
2:55 PM 73.4 °F 53.1 °F 49% 30.30 in 10.0 mi NNE 15.0 mph 24.2 mph N/A   Clear
3:15 PM 72.1 °F 53.8 °F 52% 30.30 in 10.0 mi NNE 19.6 mph 26.5 mph N/A   Clear
3:35 PM 72.1 °F 53.4 °F 52% 30.30 in 10.0 mi NNE 16.1 mph 25.3 mph N/A   Scattered Clouds
3:55 PM 71.1 °F 52.0 °F 51% 30.31 in 10.0 mi NNE 20.7 mph 25.3 mph N/A   Scattered Clouds
4:15 PM 70.7 °F 52.3 °F 52% 30.31 in 10.0 mi NNE 19.6 mph 26.5 mph N/A   Clear
4:35 PM 70.2 °F 52.7 °F 54% 30.33 in 10.0 mi NNE 18.4 mph 25.3 mph N/A   Clear
4:55 PM 70.0 °F 53.1 °F 55% 30.34 in 7.0 mi NNE 15.0 mph - N/A   Scattered Clouds
5:15 PM 69.8 °F 53.1 °F 55% 30.35 in 7.0 mi NNE 12.7 mph 25.3 mph N/A   Mostly Cloudy
5:35 PM 68.9 °F 53.8 °F 58% 30.35 in 10.0 mi NNE 13.8 mph 19.6 mph N/A   Scattered Clouds
5:55 PM 68.2 °F 54.0 °F 60% 30.36 in 10.0 mi NNE 10.4 mph - N/A   Clear
6:15 PM 67.8 °F 54.0 °F 61% 30.36 in 10.0 mi NNE 8.1 mph - N/A   Clear
6:35 PM 67.1 °F 54.0 °F 63% 30.36 in 7.0 mi North 6.9 mph - N/A   Clear
6:55 PM 66.9 °F 54.0 °F 63% 30.37 in 10.0 mi North 6.9 mph - N/A   Clear
7:15 PM 67.1 °F 53.8 °F 62% 30.39 in 10.0 mi North 11.5 mph 23.0 mph N/A   Clear
7:35 PM 65.5 °F 52.7 °F 63% 30.40 in 7.0 mi North 13.8 mph 24.2 mph N/A   Clear
7:55 PM 64.4 °F 52.2 °F 64% 30.42 in 7.0 mi North 12.7 mph 21.9 mph N/A   Clear
8:15 PM 63.9 °F 52.0 °F 65% 30.43 in 10.0 mi North 12.7 mph 17.3 mph N/A   Clear
8:35 PM 63.3 °F 51.4 °F 65% 30.44 in 10.0 mi North 16.1 mph 23.0 mph N/A   Clear
8:55 PM 62.2 °F 50.0 °F 64% 30.46 in 10.0 mi NNE 17.3 mph 23.0 mph N/A   Clear
9:15 PM 61.9 °F 50.4 °F 66% 30.47 in 7.0 mi NNE 11.5 mph 19.6 mph N/A   Mostly Cloudy
9:35 PM 61.7 °F 49.6 °F 65% 30.48 in 10.0 mi NNE 12.7 mph 21.9 mph N/A   Overcast
9:55 PM 61.2 °F 49.8 °F 66% 30.48 in 7.0 mi North 12.7 mph 18.4 mph N/A   Overcast
10:15 PM 60.6 °F 48.9 °F 65% 30.49 in 10.0 mi North 12.7 mph 23.0 mph N/A   Overcast
10:35 PM 60.3 °F 48.7 °F 66% 30.49 in 10.0 mi North 15.0 mph 21.9 mph N/A   Overcast
10:55 PM 59.9 °F 49.1 °F 67% 30.49 in 10.0 mi North 11.5 mph 23.0 mph N/A   Overcast
11:15 PM 59.5 °F 48.2 °F 66% 30.49 in 10.0 mi North 16.1 mph 23.0 mph N/A   Overcast
11:35 PM 59.4 °F 48.2 °F 67% 30.49 in 10.0 mi North 15.0 mph 24.2 mph N/A   Overcast
11:55 PM 59.0 °F 47.8 °F 66% 30.49 in 7.0 mi North 12.7 mph 19.6 mph N/A   Overcast